Location: Caualo
(45.5667°N, 10.8667°E)
Time: 10:46:05
(UTC+00:00)

In-Cosmos 22 Rocket - Pass Details

Date: 06 October 2020
Orbit: 790 x 889 km, 81.2° (Epoch: 20 October)

Event Time Altitude Azimuth Distance (km) Brightness Sun altitude
Rises 20:03:02 0° 351° (N) 3,318 7.8 -34.0°
Reaches altitude 10° 20:05:27 10° 354° (N) 2,375 6.9 -34.3°
Enters shadow 20:07:17 22° 359° (N) 1,691 6.0 -34.6°
